This is the latest recevied weather packets stored in our database for station/object K8FJG-13. If no packets are shown the sender has not sent any weather packets the latest 1 day(s).
| Time | Temp. | Humidity | Pressure | Rain* | Wind** | Luminosity | Snow |
|---|---|---|---|---|---|---|---|
| 1778028660 | 8.89° C | 97% | 963.7 hPa | - | 0.45 m/s, 283° | - | - |
| 1778028057 | 8.89° C | 96% | 963.8 hPa | - | 0.45 m/s, 350° | - | - |
| 1778027454 | 8.89° C | 96% | 963.7 hPa | - | 0.45 m/s, 339° | - | - |
| 1778026851 | 8.89° C | 96% | 963.6 hPa | - | 0.45 m/s, 7° | - | - |
| 1778026248 | 8.33° C | 96% | 963.5 hPa | - | 0.45 m/s, 54° | - | - |
| 1778025644 | 8.89° C | 96% | 963.6 hPa | - | 0.89 m/s, 340° | - | - |
| 1778025041 | 8.89° C | 96% | 963.9 hPa | - | 0.45 m/s, 57° | - | - |
| 1778024438 | 8.89° C | 96% | 963.9 hPa | - | 0.45 m/s, 3° | - | - |
| 1778023835 | 8.89° C | 96% | 963.9 hPa | - | 0.45 m/s, 26° | - | - |
| 1778023232 | 8.33° C | 96% | 964.7 hPa | - | 0.89 m/s, 294° | - | - |
| 1778022628 | 8.33° C | 96% | 963.9 hPa | - | 0.89 m/s, 307° | - | - |
| 1778022025 | 8.33° C | 96% | 963.8 hPa | - | 0.89 m/s, 27° | - | - |
| 1778021422 | 8.89° C | 96% | 964.1 hPa | - | 0.89 m/s, 346° | - | - |
| 1778020819 | 8.89° C | 96% | 964 hPa | - | 0.45 m/s, 354° | - | - |
| 1778020216 | 8.89° C | 96% | 964 hPa | - | 0.45 m/s, 8° | - | - |
| 1778019613 | 8.89° C | 96% | 964 hPa | - | 0.45 m/s, 0° | - | - |
| 1778019009 | 9.44° C | 96% | 964 hPa | - | 0.89 m/s, 0° | - | - |
| 1778018406 | 9.44° C | 96% | 963.8 hPa | - | 0.89 m/s, 12° | - | - |
| 1778017803 | 9.44° C | 96% | 963.8 hPa | - | 0.89 m/s, 30° | - | - |
| 1778017200 | 10° C | 96% | 963.9 hPa | - | 0.45 m/s, 314° | - | - |
| 1778016597 | 10.56° C | 95% | 964.2 hPa | - | 0.89 m/s, 225° | - | - |
| 1778015994 | 11.11° C | 95% | 963.6 hPa | - | 0.89 m/s, 342° | - | - |
| 1778015391 | 11.67° C | 95% | 963.4 hPa | - | 1.34 m/s, 325° | - | - |
| 1778014787 | 12.22° C | 95% | 963.3 hPa | - | 1.79 m/s, 337° | - | - |
| 1778014184 | 12.22° C | 95% | 963.5 hPa | - | 0.89 m/s, 304° | - | - |
* Rain since midnight (hover to see other rain measurements)
** Current wind speed in m/s (hover to see current wind gust speed)